24hr Temperature Data

Temp.
(°C)
Wind Chill
(°C)
Dew Point
(°C)
Solar Hours
(hh:mm)
Solar Radiation
(w/m2)
Min
13.6 12.2 5.3 00:00 0.0
Max
20.4 21.1 15.2 07:50 424.0
Range
6.8 8.9 9.9 n/a 424
Mode
17.0 17.6 14.8 00:00 4.0
Median
17.1 17.5 13.8 04:07 24.0
Mean
17.4 17.3 12 n/a 89
Std. Dev
1.7 2.1 3 n/a 108.5
Temp.
(°C)
Wind Chill
(°C)
Dew Point
(°C)
Solar Hours
(hh:mm)
Solar Radiation
(w/m2)
26/07 20:25 14.0 12.8 9.4 07:50 0.0
26/07 20:24 14.0 12.8 9.4 07:50 0.0
26/07 20:23 14.1 13 9.5 07:50 0.0
26/07 20:22 14.1 13 9.5 07:50 4.0
26/07 20:21 14.1 13.1 9.5 07:50 4.0
26/07 20:20 14.0 12.9 9.4 07:50 4.0
26/07 20:19 14.0 12.9 9.4 07:50 4.0
26/07 20:18 14.0 12.9 9.4 07:50 0.0
26/07 20:17 14.0 12.9 9.4 07:50 4.0
26/07 20:16 14.0 12.9 9.4 07:50 4.0
26/07 20:15 14.0 12.9 9.4 07:50 4.0
26/07 20:14 14.0 12.9 9.4 07:50 4.0
26/07 20:13 14.0 12.9 9.4 07:50 4.0
26/07 20:12 14.0 12.9 9.4 07:50 4.0
26/07 20:11 14.0 12.9 9.4 07:50 6.0
26/07 20:10 14.1 13 9.5 07:50 6.0
26/07 20:09 14.0 12.8 9.4 07:50 6.0
26/07 20:08 14.1 13 9.5 07:50 6.0
26/07 20:07 14.1 13 9.5 07:50 4.0
26/07 20:06 14.1 13 9.5 07:50 4.0
26/07 20:05 14.1 12.9 9.3 07:50 4.0
26/07 20:04 14.1 12.9 9.3 07:50 4.0
26/07 20:03 14.1 12.9 9.3 07:50 4.0
26/07 20:02 14.1 12.9 9.3 07:50 6.0
26/07 20:01 14.1 12.9 9.3 07:50 6.0
26/07 20:00 14.1 12.9 9.3 07:50 6.0
26/07 19:59 14.1 12.9 9.3 07:50 6.0
26/07 19:58 14.1 12.9 9.3 07:50 6.0
26/07 19:57 14.2 13 9.4 07:50 6.0
26/07 19:56 14.2 13 9.4 07:50 6.0
26/07 19:55 14.2 12.9 9.4 07:50 6.0
26/07 19:54 14.2 12.9 9.2 07:50 6.0
26/07 19:53 14.2 12.9 9.2 07:50 6.0
26/07 19:52 14.2 13 9.2 07:50 8.0
26/07 19:51 14.2 13 9.2 07:50 14.0
26/07 19:50 14.2 13 9.2 07:50 14.0
26/07 19:49 14.3 13.2 9.3 07:50 16.0
26/07 19:48 14.2 13.1 9.2 07:50 16.0
26/07 19:47 14.2 13.1 9.2 07:50 16.0
26/07 19:46 14.2 13.1 9.2 07:50 16.0
26/07 19:45 14.2 13.1 9.2 07:50 16.0
26/07 19:44 14.2 13.2 9.2 07:50 16.0
26/07 19:43 14.2 13.2 9.2 07:50 18.0
26/07 19:42 14.2 13.2 9.4 07:50 18.0
26/07 19:41 14.2 13.2 9.4 07:50 20.0
26/07 19:40 14.2 13.1 9.4 07:50 20.0
26/07 19:39 14.2 13.1 9.4 07:50 20.0
26/07 19:38 14.2 13.1 9.2 07:50 22.0
26/07 19:37 14.2 13.1 9.4 07:50 22.0
26/07 19:36 14.2 13 9.4 07:50 22.0
26/07 19:35 14.2 13 9.2 07:50 24.0
26/07 19:34 14.2 13 9.2 07:50 24.0
26/07 19:33 14.2 12.9 9.4 07:50 24.0
26/07 19:32 14.2 12.9 9.2 07:50 24.0
26/07 19:31 14.2 12.9 9.2 07:50 26.0
26/07 19:30 14.2 12.9 9.2 07:50 26.0
26/07 19:29 14.2 12.9 9.2 07:50 26.0
26/07 19:28 14.2 12.9 9.4 07:50 28.0
26/07 19:27 14.2 12.9 9.2 07:50 28.0
26/07 19:26 14.2 12.9 9.4 07:50 28.0
26/07 19:25 14.1 12.8 9.3 07:50 28.0
26/07 19:24 14.1 12.8 9.3 07:50 30.0
26/07 19:23 14.0 12.7 9.2 07:50 30.0
26/07 19:22 14.1 12.8 9.5 07:50 30.0
26/07 19:21 14.0 12.7 9.4 07:50 32.0
26/07 19:20 14.0 12.7 9.4 07:50 32.0
26/07 19:19 14.0 12.7 9.4 07:50 32.0
26/07 19:18 13.9 12.5 9.3 07:50 32.0
26/07 19:17 13.9 12.6 9.3 07:50 34.0
26/07 19:16 13.9 12.6 9.5 07:50 36.0
26/07 19:15 13.9 12.6 9.7 07:50 36.0
26/07 19:14 13.9 12.6 9.7 07:50 38.0
26/07 19:13 13.8 12.4 9.6 07:50 38.0
26/07 19:12 13.8 12.4 9.6 07:50 38.0
26/07 19:11 13.8 12.4 9.6 07:50 40.0
26/07 19:10 13.8 12.4 9.6 07:50 40.0
26/07 19:09 13.8 12.4 9.6 07:50 42.0
26/07 19:08 13.8 12.4 9.6 07:50 42.0
26/07 19:07 13.8 12.4 9.6 07:50 44.0
26/07 19:06 13.8 12.4 9.8 07:50 46.0
26/07 19:05 13.7 12.3 9.5 07:50 46.0
26/07 19:04 13.7 12.3 9.5 07:50 48.0
26/07 19:03 13.6 12.2 9.4 07:50 48.0
26/07 19:02 13.7 12.3 9.5 07:50 50.0
26/07 19:01 13.6 12.3 9.6 07:50 52.0
26/07 19:00 13.6 12.3 9.6 07:50 56.0
26/07 18:59 13.6 12.3 9.6 07:50 58.0
26/07 18:58 13.7 12.4 9.7 07:50 62.0
26/07 18:57 13.6 12.3 9.6 07:50 68.0
26/07 18:56 13.7 12.4 9.5 07:50 76.0
26/07 18:55 13.7 12.5 9.7 07:50 78.0
26/07 18:54 13.6 12.4 9.6 07:50 88.0
26/07 18:53 13.6 12.4 9.4 07:50 80.0
26/07 18:52 13.7 12.5 9.7 07:50 68.0
26/07 18:51 13.7 12.6 9.7 07:50 72.0
26/07 18:50 13.7 12.6 9.7 07:50 64.0
26/07 18:49 13.7 12.5 9.5 07:50 38.0
26/07 18:48 13.7 12.6 9.5 07:50 36.0
26/07 18:47 13.8 12.7 9.8 07:50 40.0
26/07 18:46 13.7 12.6 9.7 07:50 52.0
26/07 18:45 13.7 12.5 9.7 07:50 68.0
26/07 18:44 13.7 12.6 9.7 07:50 90.0
26/07 18:43 13.7 12.6 9.7 07:50 114.0
26/07 18:42 13.7 12.6 9.9 07:50 126.0
26/07 18:41 13.6 12.4 9.6 07:49 114.0
26/07 18:40 13.6 12.4 9.6 07:48 50.0
26/07 18:39 13.6 12.4 9.6 07:48 40.0
26/07 18:38 13.6 12.5 9.6 07:48 38.0
26/07 18:37 13.6 12.5 9.8 07:48 40.0
26/07 18:36 13.6 12.6 9.8 07:48 42.0
26/07 18:35 13.6 12.5 9.8 07:48 44.0
26/07 18:34 13.6 12.6 9.8 07:48 48.0
26/07 18:33 13.6 12.6 9.8 07:48 52.0
26/07 18:32 13.6 12.5 9.8 07:48 54.0
26/07 18:31 13.6 12.5 10 07:48 54.0
26/07 18:30 13.6 12.5 9.8 07:48 54.0
26/07 18:29 13.6 12.5 10 07:48 50.0
26/07 18:28 13.6 12.4 10 07:48 46.0
26/07 18:27 13.7 12.5 10.1 07:48 40.0
26/07 18:26 13.7 12.5 10.3 07:48 36.0
26/07 18:25 13.7 12.5 10.1 07:48 32.0
26/07 18:24 13.7 12.4 9.9 07:48 30.0
26/07 18:23 13.7 12.5 10.1 07:48 28.0
26/07 18:22 13.8 12.6 10 07:48 28.0
26/07 18:21 13.8 12.6 10 07:48 28.0
26/07 18:20 13.8 12.6 10 07:48 28.0
26/07 18:19 13.8 12.6 10 07:48 28.0
26/07 18:18 13.8 12.6 10 07:48 30.0
26/07 18:17 13.7 12.5 9.9 07:48 26.0
26/07 18:16 13.7 12.5 9.9 07:48 24.0
26/07 18:15 13.6 12.4 9.8 07:48 22.0
26/07 18:14 13.7 12.5 10.1 07:48 22.0
26/07 18:13 13.7 12.5 10.1 07:48 22.0
26/07 18:12 13.6 12.4 10 07:48 22.0
26/07 18:11 13.6 12.4 10 07:48 22.0
26/07 18:10 13.6 12.4 10.2 07:48 22.0
26/07 18:09 13.6 12.4 10.2 07:48 22.0
26/07 18:08 13.6 12.4 10 07:48 24.0
26/07 18:07 13.7 12.7 10.1 07:48 26.0
26/07 18:06 13.8 12.8 10.2 07:48 28.0
26/07 18:05 13.8 12.9 10 07:48 28.0
26/07 18:04 13.9 13.1 10.1 07:48 22.0
26/07 18:03 14.0 13.2 10.2 07:48 12.0
26/07 18:02 14.0 13.2 10 07:48 10.0
26/07 18:01 14.1 13.4 10.1 07:48 8.0
26/07 18:00 14.2 13.5 10.2 07:48 8.0
26/07 17:59 14.2 13.4 10.2 07:48 8.0
26/07 17:58 14.2 13.4 10.2 07:48 8.0
26/07 17:57 14.3 13.4 10.3 07:48 8.0
26/07 17:56 14.4 13.5 10.4 07:48 8.0
26/07 17:55 14.4 13.4 10.2 07:48 10.0
26/07 17:54 14.5 13.5 10.5 07:48 12.0
26/07 17:53 14.4 13.2 10.2 07:48 12.0
26/07 17:52 14.5 13.2 10.3 07:48 12.0
26/07 17:51 14.6 13.2 10.2 07:48 12.0
26/07 17:50 14.7 13.3 10.1 07:48 10.0
26/07 17:49 14.9 13.5 9.9 07:48 10.0
26/07 17:48 15.2 13.9 9.9 07:48 10.0
26/07 17:47 15.3 14 9.8 07:48 10.0
26/07 17:46 15.5 14.3 9.6 07:48 8.0
26/07 17:45 15.9 14.8 9.7 07:48 8.0
26/07 17:44 16.1 15 9.9 07:48 8.0
26/07 17:43 16.3 15.3 9.7 07:48 6.0
26/07 17:42 16.9 16.1 9.3 07:48 6.0
26/07 17:41 17.6 17 9.2 07:48 6.0
26/07 17:40 18.1 17.8 8.6 07:48 6.0
26/07 17:39 18.2 18 7.5 07:48 8.0
26/07 17:38 18.2 18 7.2 07:48 14.0
26/07 17:37 18.3 18.1 7.3 07:48 20.0
26/07 17:36 18.2 18 7.2 07:48 26.0
26/07 17:35 18.3 18.2 7 07:48 30.0
26/07 17:34 18.4 18.3 7.1 07:48 32.0
26/07 17:33 18.5 18.5 7.2 07:48 32.0
26/07 17:32 18.6 18.7 7.3 07:48 32.0
26/07 17:31 18.6 18.8 7.9 07:48 32.0
26/07 17:30 18.6 18.8 8.2 07:48 32.0
26/07 17:29 18.6 18.8 7.9 07:48 42.0
26/07 17:28 18.6 18.8 7.9 07:48 54.0
26/07 17:27 18.7 18.9 8 07:48 124.0
26/07 17:26 18.9 19.2 7.9 07:47 142.0
26/07 17:24 18.8 19 7.8 07:46 168.0
26/07 17:23 18.8 19 7.8 07:45 116.0
26/07 17:22 18.8 18.9 8.1 07:45 34.0
26/07 17:21 18.8 18.9 8.1 07:45 62.0
26/07 17:20 18.8 18.9 8.1 07:44 146.0
26/07 17:19 18.7 18.7 8 07:43 144.0
26/07 17:18 18.7 18.7 8 07:42 148.0
26/07 17:17 18.8 18.8 7.8 07:41 154.0
26/07 17:16 18.8 18.8 7.8 07:40 156.0
26/07 17:15 18.7 18.7 8 07:39 164.0
26/07 17:14 18.6 18.5 7.9 07:38 186.0
26/07 17:13 18.6 18.5 7.6 07:37 204.0
26/07 17:12 18.7 18.7 7.7 07:36 210.0
26/07 17:11 18.6 18.5 7.9 07:35 204.0
26/07 17:10 18.6 18.6 7.6 07:34 130.0
26/07 17:09 18.6 18.5 7.6 07:34 130.0
26/07 17:08 18.6 18.5 7.6 07:34 90.0
26/07 17:07 18.7 18.7 7.7 07:33 98.0
26/07 17:06 18.9 18.9 7.6 07:33 96.0
26/07 17:05 18.9 18.9 7.9 07:33 72.0
26/07 17:04 19.0 19.1 8 07:33 64.0
26/07 17:03 19.0 19.1 8 07:33 60.0
26/07 17:02 19.0 19.1 7.7 07:33 56.0
26/07 17:01 19.0 19.1 7.4 07:33 48.0
26/07 17:00 19.0 19.1 7.4 07:33 40.0
26/07 16:59 19.1 19.2 7.1 07:33 42.0
26/07 16:58 19.2 19.3 7.2 07:33 50.0
26/07 16:57 19.3 19.4 7.3 07:33 54.0
26/07 16:56 19.3 19.4 7 07:33 60.0
26/07 16:55 19.4 19.6 7.1 07:33 72.0
26/07 16:54 19.4 19.6 7.1 07:33 86.0
26/07 16:53 19.4 19.6 7.1 07:33 94.0
26/07 16:52 19.3 19.6 7 07:33 150.0
26/07 16:51 19.3 19.5 7 07:32 150.0
26/07 16:50 19.3 19.5 7 07:32 98.0
26/07 16:49 19.3 19.6 7 07:32 96.0
26/07 16:48 19.3 19.6 7 07:32 100.0
26/07 16:47 19.4 19.8 6.8 07:32 194.0
26/07 16:46 19.4 19.8 7.1 07:31 156.0
26/07 16:45 19.4 19.8 7.4 07:30 216.0
26/07 16:44 19.4 19.8 8.1 07:29 164.0
26/07 16:43 19.3 19.7 7.6 07:28 204.0
26/07 16:42 19.2 19.6 7.6 07:27 194.0
26/07 16:41 19.2 19.6 7.2 07:27 230.0
26/07 16:40 19.2 19.5 7.6 07:26 148.0
26/07 16:39 19.1 19.4 7.8 07:25 80.0
26/07 16:38 19.0 19.3 7.7 07:25 90.0
26/07 16:37 19.0 19.3 7.7 07:25 58.0
26/07 16:36 19.1 19.4 8.1 07:25 44.0
26/07 16:35 19.2 19.6 7.9 07:25 80.0
26/07 16:34 19.2 19.6 7.9 07:25 132.0
26/07 16:33 19.3 19.7 8 07:24 190.0
26/07 16:32 19.3 19.7 8.3 07:23 114.0
26/07 16:31 19.3 19.7 8.6 07:23 158.0
26/07 16:30 19.3 19.7 8.3 07:22 194.0
26/07 16:29 19.4 19.8 8.7 07:21 194.0
26/07 16:28 19.4 19.8 8.7 07:20 194.0
26/07 16:27 19.4 19.8 8.7 07:19 192.0
26/07 16:26 19.3 19.7 8.6 07:18 192.0
26/07 16:25 19.2 19.5 8.8 07:17 194.0
26/07 16:24 19.2 19.5 8.5 07:16 196.0
26/07 16:23 19.1 19.4 8.7 07:15 198.0
26/07 16:22 19.0 19.2 8.9 07:14 198.0
26/07 16:21 18.9 19.1 8.8 07:13 200.0
26/07 16:20 18.9 19.1 8.8 07:12 200.0
26/07 16:19 18.9 19.1 8.5 07:11 204.0
26/07 16:18 18.9 19.1 8.5 07:10 206.0
26/07 16:17 18.9 19.1 8.8 07:09 216.0
26/07 16:16 18.8 19 8.4 07:08 238.0
26/07 16:15 18.8 19 8.4 07:07 256.0
26/07 16:14 18.7 18.9 8.3 07:06 226.0
26/07 16:13 18.7 18.9 8.6 07:05 74.0
26/07 16:12 18.7 18.9 8.3 07:05 66.0
26/07 16:11 18.8 19.1 8.4 07:05 66.0
26/07 16:10 18.8 19.1 8.4 07:05 64.0
26/07 16:09 18.7 19 8.3 07:05 62.0
26/07 16:08 18.8 19 8.1 07:05 62.0
26/07 16:07 18.8 19.1 8.1 07:05 70.0
26/07 16:06 18.8 19.1 8.1 07:05 82.0
26/07 16:05 18.8 19.1 8.1 07:05 84.0
26/07 16:04 18.8 19.1 8.1 07:05 68.0
26/07 16:03 18.9 19.2 7.9 07:05 56.0
26/07 16:02 19.0 19.3 8 07:05 54.0
26/07 16:01 18.9 19.2 8.2 07:05 58.0
26/07 16:00 18.9 19.2 8.2 07:05 58.0
26/07 15:59 18.9 19.2 8.2 07:05 70.0
26/07 15:58 19.0 19.3 8.3 07:05 82.0
26/07 15:57 19.0 19.3 8.3 07:05 80.0
26/07 15:56 19.0 19.2 8.3 07:05 128.0
26/07 15:55 19.0 19.2 8.3 07:04 186.0
26/07 15:54 18.9 19.1 8.2 07:04 146.0
26/07 15:53 18.9 19.1 8.2 07:03 148.0
26/07 15:52 18.9 19.1 8.5 07:03 178.0
26/07 15:51 18.9 19.1 8.5 07:02 138.0
26/07 15:50 18.8 18.9 8.7 07:01 242.0
26/07 15:49 18.6 18.7 8.8 07:00 256.0
26/07 15:48 18.5 18.5 8.4 06:59 252.0
26/07 15:47 18.4 18.4 8.3 06:58 252.0
26/07 15:46 18.5 18.5 8.4 06:57 252.0
26/07 15:45 18.5 18.5 8.4 06:56 218.0
26/07 15:44 18.5 18.5 8.7 06:55 60.0
26/07 15:43 18.5 18.5 8.4 06:55 86.0
26/07 15:42 18.5 18.5 8.7 06:55 178.0
26/07 15:41 18.4 18.4 8.3 06:55 240.0
26/07 15:40 18.5 18.5 8.7 06:54 180.0
26/07 15:39 18.6 18.6 8.8 06:53 214.0
26/07 15:38 18.5 18.4 9 06:52 156.0
26/07 15:37 18.4 18.3 8.6 06:51 160.0
26/07 15:36 18.3 18.2 8.5 06:51 224.0
26/07 15:35 18.2 18 9 06:50 152.0
26/07 15:34 18.2 18 8.7 06:49 260.0
26/07 15:33 18.2 18 9 06:48 250.0
26/07 15:32 18.1 17.9 8.9 06:47 274.0
26/07 15:31 18.1 17.9 8.9 06:46 280.0
26/07 15:30 18.1 17.9 8.9 06:45 298.0
26/07 15:29 18.1 17.9 8.9 06:44 324.0
26/07 15:28 18.1 17.9 8.9 06:43 240.0
26/07 15:27 18.1 17.9 8.6 06:42 166.0
26/07 15:26 18.2 18 8.7 06:41 138.0
26/07 15:25 18.3 18.2 8.8 06:40 128.0
26/07 15:24 18.4 18.3 8.6 06:39 136.0
26/07 15:23 18.4 18.3 8.3 06:38 164.0
26/07 15:22 18.4 18.3 8.3 06:37 176.0
26/07 15:21 18.3 18.1 8.2 06:36 182.0
26/07 15:20 18.3 18.1 8.2 06:35 206.0
26/07 15:19 18.3 18.2 8.5 06:34 268.0
26/07 15:18 18.3 18.2 8.2 06:33 120.0
26/07 15:17 18.4 18.3 8 06:33 108.0
26/07 15:16 18.5 18.4 7.8 06:33 128.0
26/07 15:15 18.6 18.5 7.9 06:32 138.0
26/07 15:14 18.7 18.6 8.3 06:31 144.0
26/07 15:13 18.9 18.9 7.9 06:31 112.0
26/07 15:12 18.9 18.9 7.9 06:31 118.0
26/07 15:11 19.0 19 7.7 06:30 142.0
26/07 15:10 19.1 19.1 7.5 06:30 148.0
26/07 15:09 19.1 19.1 7.5 06:29 146.0
26/07 15:08 19.0 19 7.1 06:29 114.0
26/07 15:07 19.1 19.1 7.1 06:29 126.0
26/07 15:06 19.2 19.3 6.9 06:28 240.0
26/07 15:05 19.3 19.4 7 06:27 140.0
26/07 15:04 19.4 19.6 7.1 06:26 128.0
26/07 15:03 19.4 19.5 7.1 06:25 120.0
26/07 15:02 19.3 19.4 7.3 06:24 152.0
26/07 15:01 19.3 19.3 7.3 06:23 274.0
26/07 15:00 19.2 19.2 6.9 06:22 284.0
26/07 14:59 19.2 19.2 7.2 06:21 356.0
26/07 14:58 19.1 19.1 7.1 06:20 360.0
26/07 14:57 18.9 18.8 7 06:19 262.0
26/07 14:56 18.8 18.7 6.9 06:18 134.0
26/07 14:55 18.8 18.7 6.9 06:17 136.0
26/07 14:54 18.8 18.7 6.6 06:16 94.0
26/07 14:53 18.9 18.8 6.6 06:16 92.0
26/07 14:52 19.0 18.9 6.7 06:16 94.0
26/07 14:51 19.1 19 6.5 06:16 94.0
26/07 14:50 19.2 19.2 6.3 06:16 96.0
26/07 14:49 19.2 19.2 6.6 06:16 106.0
26/07 14:48 19.2 19.2 6.6 06:16 156.0
26/07 14:47 19.2 19.2 6.6 06:15 110.0
26/07 14:46 19.2 19.2 6.3 06:15 110.0
26/07 14:45 19.2 19.2 6.6 06:15 118.0
26/07 14:44 19.1 19.1 6.5 06:15 140.0
26/07 14:43 19.1 19.1 6.2 06:14 288.0
26/07 14:42 19.1 19.1 6.2 06:13 122.0
26/07 14:41 19.1 19.1 5.8 06:12 114.0
26/07 14:40 19.1 19.1 6.5 06:12 172.0
26/07 14:39 18.9 18.9 6.6 06:11 114.0
26/07 14:38 18.9 18.9 6.6 06:11 118.0
26/07 14:37 19.0 19 6.7 06:11 128.0
26/07 14:36 18.9 18.8 6.6 06:10 144.0
26/07 14:35 18.9 18.8 6.6 06:09 150.0
26/07 14:34 18.9 18.8 6.3 06:08 332.0
26/07 14:33 18.8 18.6 6.2 06:07 216.0
26/07 14:32 18.8 18.6 6.6 06:06 204.0
26/07 14:31 18.8 18.6 6.6 06:05 236.0
26/07 14:30 18.9 18.7 6.3 06:04 166.0
26/07 14:29 19.0 18.8 6.7 06:03 256.0
26/07 14:28 19.0 18.8 6.4 06:02 246.0
26/07 14:27 18.9 18.7 6 06:01 152.0
26/07 14:26 18.8 18.5 5.9 06:00 122.0
26/07 14:25 18.8 18.5 5.9 05:59 138.0
26/07 14:24 18.9 18.6 6 05:59 166.0
26/07 14:23 18.9 18.7 5.3 05:58 242.0
26/07 14:22 19.0 18.8 5.7 05:57 268.0
26/07 14:21 19.0 18.9 5.7 05:56 276.0
26/07 14:20 19.1 19 5.8 05:55 342.0
26/07 14:19 19.3 19.3 5.7 05:54 260.0
26/07 14:18 19.4 19.4 6.1 05:53 304.0
26/07 14:17 19.5 19.6 6.2 05:52 294.0
26/07 14:16 19.4 19.5 6.4 05:51 274.0
26/07 14:15 19.4 19.5 6.4 05:50 274.0
26/07 14:14 19.5 19.6 6.2 05:49 258.0
26/07 14:13 19.4 19.5 6.1 05:48 218.0
26/07 14:12 19.3 19.4 6.3 05:47 222.0
26/07 14:11 19.2 19.3 6.9 05:46 216.0
26/07 14:10 19.1 19.1 6.5 05:45 218.0
26/07 14:09 19.0 19 7.4 05:44 260.0
26/07 14:08 18.8 18.7 7.5 05:43 248.0
26/07 14:07 18.7 18.5 7.4 05:42 230.0
26/07 14:06 18.7 18.6 8 05:41 250.0
26/07 14:05 18.7 18.5 8 05:40 254.0
26/07 14:04 18.6 18.4 7.9 05:39 316.0
26/07 14:03 18.6 18.4 8.5 05:38 164.0
26/07 14:02 18.6 18.3 8.5 05:37 142.0
26/07 14:01 18.6 18.3 8.2 05:36 226.0
26/07 14:00 18.6 18.3 8.2 05:35 132.0
26/07 13:59 18.6 18.3 8.2 05:34 102.0
26/07 13:58 18.6 18.3 7.9 05:34 102.0
26/07 13:57 18.7 18.4 8.3 05:34 110.0
26/07 13:56 18.7 18.4 8 05:34 216.0
26/07 13:55 18.7 18.5 8 05:33 400.0
26/07 13:54 18.7 18.4 8 05:32 280.0
26/07 13:53 18.7 18.4 8 05:31 178.0
26/07 13:52 18.7 18.4 7.4 05:30 118.0
26/07 13:51 18.8 18.6 7.5 05:30 144.0
26/07 13:50 18.9 18.7 7.6 05:30 296.0
26/07 13:49 18.9 18.7 7.3 05:29 398.0
26/07 13:48 19.0 18.9 7.4 05:28 396.0
26/07 13:47 19.2 19.1 7.6 05:27 264.0
26/07 13:46 19.3 19.2 7.6 05:26 142.0
26/07 13:45 19.3 19.2 7 05:25 156.0
26/07 13:44 19.3 19.2 7 05:24 368.0
26/07 13:43 19.3 19.2 7 05:23 368.0
26/07 13:42 19.2 19.1 7.2 05:22 364.0
26/07 13:41 19.2 19.1 6.9 05:21 248.0
26/07 13:40 19.2 19.1 6.9 05:20 330.0
26/07 13:39 19.2 19.2 6.9 05:19 318.0
26/07 13:38 19.2 19.2 7.2 05:18 334.0
26/07 13:37 19.2 19.2 7.6 05:17 336.0
26/07 13:36 19.2 19.2 7.2 05:16 328.0
26/07 13:35 19.1 19.1 7.5 05:15 338.0
26/07 13:34 19.1 19.1 7.1 05:14 338.0
26/07 13:33 19.1 19.1 8.1 05:13 338.0
26/07 13:32 19.1 19.1 8.1 05:12 346.0
26/07 13:31 19.1 19.1 8.1 05:11 324.0
26/07 13:30 19.0 19.1 8.3 05:10 294.0
26/07 13:29 18.8 18.8 8.1 05:09 340.0
26/07 13:28 18.7 18.6 7.7 05:08 232.0
26/07 13:27 18.7 18.7 8.3 05:07 114.0
26/07 13:26 18.6 18.5 8.2 05:07 124.0
26/07 13:25 18.6 18.5 8.2 05:06 114.0
26/07 13:24 18.7 18.6 8.3 05:06 232.0
26/07 13:23 18.7 18.6 8 05:05 136.0
26/07 13:22 18.7 18.6 8.6 05:05 194.0
26/07 13:21 18.8 18.7 8.1 05:04 206.0
26/07 13:20 18.7 18.6 8.3 05:03 350.0
26/07 13:19 18.7 18.6 8.3 05:02 322.0
26/07 13:18 18.7 18.6 8 05:01 310.0
26/07 13:17 18.7 18.6 8.6 05:00 322.0
26/07 13:16 18.6 18.4 8.5 04:59 312.0
26/07 13:15 18.5 18.3 8.1 04:58 298.0
26/07 13:14 18.5 18.3 9 04:57 270.0
26/07 13:13 18.5 18.2 8.7 04:56 284.0
26/07 13:12 18.5 18.2 8.7 04:55 320.0
26/07 13:11 18.5 18.2 8.7 04:54 350.0
26/07 13:10 18.6 18.4 8.8 04:53 386.0
26/07 13:09 18.5 18.3 8.7 04:52 404.0
26/07 13:08 18.5 18.3 8.7 04:51 318.0
26/07 13:07 18.5 18.3 8.4 04:50 126.0
26/07 13:06 18.5 18.3 8.4 04:49 144.0
26/07 13:05 18.4 18.2 8 04:48 184.0
26/07 13:04 18.5 18.3 8.4 04:47 196.0
26/07 13:03 18.5 18.4 8.1 04:46 114.0
26/07 13:02 18.6 18.5 8.2 04:46 100.0
26/07 13:01 18.6 18.6 8.2 04:46 156.0
26/07 13:00 18.6 18.6 7.9 04:45 154.0
26/07 12:59 18.7 18.8 8.3 04:45 92.0
26/07 12:58 18.7 18.8 8.3 04:45 200.0
26/07 12:57 18.7 18.8 8.3 04:44 170.0
26/07 12:54 18.7 18.8 8.3 04:42 94.0
26/07 12:53 18.8 18.9 8.4 04:42 282.0
26/07 12:52 18.9 19 8.8 04:41 86.0
26/07 12:51 18.8 18.9 8.7 04:41 90.0
26/07 12:50 18.7 18.7 8.6 04:41 102.0
26/07 12:49 18.7 18.6 8.6 04:41 104.0
26/07 12:48 18.7 18.6 8 04:41 124.0
26/07 12:47 18.7 18.6 8.6 04:41 234.0
26/07 12:46 18.6 18.4 8.8 04:40 312.0
26/07 12:45 18.5 18.3 8.4 04:39 364.0
26/07 12:44 18.4 18.1 8.3 04:38 344.0
26/07 12:43 18.5 18.2 8.4 04:37 338.0
26/07 12:42 18.5 18.3 8.4 04:36 348.0
26/07 12:41 18.5 18.3 8.1 04:35 188.0
26/07 12:40 18.4 18.2 8 04:34 280.0
26/07 12:39 18.4 18.2 8 04:33 114.0
26/07 12:38 18.4 18.2 7.7 04:33 104.0
26/07 12:36 18.5 18.3 7.8 04:33 106.0
26/07 12:35 18.5 18.3 7.8 04:33 124.0
26/07 12:34 18.6 18.4 7.6 04:32 134.0
26/07 12:33 18.6 18.4 7.3 04:31 146.0
26/07 12:32 18.6 18.4 7.3 04:30 146.0
26/07 12:31 18.5 18.3 8.1 04:29 270.0
26/07 12:30 18.4 18.2 7.7 04:28 358.0
26/07 12:29 18.3 18 7.9 04:27 258.0
26/07 12:28 18.3 18 8.5 04:27 152.0
26/07 12:27 18.2 17.8 8.4 04:26 110.0
26/07 12:26 18.1 17.7 8.6 04:26 174.0
26/07 12:25 18.1 17.7 8.9 04:25 194.0
26/07 12:24 18.2 17.9 9.2 04:24 218.0
26/07 12:23 18.3 18 9 04:23 314.0
26/07 12:22 18.4 18.1 9.1 04:22 270.0
26/07 12:21 18.5 18.2 9.2 04:21 138.0
26/07 12:20 18.6 18.4 9.1 04:20 204.0
26/07 12:19 18.6 18.3 8.8 04:19 332.0
26/07 12:18 18.7 18.4 8.6 04:18 270.0
26/07 12:17 18.7 18.4 8.9 04:17 424.0
26/07 12:16 18.7 18.4 8.6 04:16 326.0
26/07 12:15 18.7 18.4 8.6 04:15 388.0
26/07 12:14 18.7 18.4 8.9 04:14 366.0
26/07 12:13 18.6 18.3 9.1 04:13 352.0
26/07 12:12 18.5 18.1 9 04:12 168.0
26/07 12:11 18.5 18.1 8.7 04:11 146.0
26/07 12:10 18.4 18 8.6 04:10 296.0
26/07 12:09 18.4 18 8.6 04:09 386.0
26/07 12:08 18.3 17.9 8.5 04:08 366.0
26/07 12:07 18.3 17.9 8.5 04:07 348.0
26/07 12:06 18.4 18 8.3 04:06 364.0
26/07 12:05 18.5 18.2 8.4 04:05 124.0
26/07 12:04 18.6 18.3 8.8 04:05 268.0
26/07 12:03 18.6 18.3 9.1 04:04 294.0
26/07 12:02 18.6 18.3 9.1 04:04 310.0
26/07 12:01 18.5 18.2 9 04:03 368.0
26/07 12:00 18.4 18.1 8.9 04:02 274.0
26/07 11:59 18.4 18 8.3 04:01 320.0
26/07 11:58 18.4 18.1 8.6 04:00 346.0
26/07 11:57 18.3 17.9 8.8 03:59 354.0
26/07 11:56 18.2 17.8 8.7 03:58 344.0
26/07 11:55 18.2 17.8 8.7 03:57 330.0
26/07 11:54 18.1 17.7 8.3 03:56 328.0
26/07 11:53 18.0 17.6 8.8 03:55 326.0
26/07 11:52 17.9 17.4 8.9 03:54 324.0
26/07 11:51 17.8 17.3 9.1 03:53 324.0
26/07 11:50 17.6 17 9.2 03:52 322.0
26/07 11:49 17.5 16.9 9.1 03:51 324.0
26/07 11:48 17.5 16.9 9.3 03:50 324.0
26/07 11:47 17.5 16.9 9.3 03:49 324.0
26/07 11:46 17.4 16.7 9.5 03:48 324.0
26/07 11:45 17.3 16.6 9.4 03:47 324.0
26/07 11:44 17.2 16.4 9.3 03:46 324.0
26/07 11:43 17.2 16.4 9.3 03:45 274.0
26/07 11:42 17.2 16.4 9.3 03:44 272.0
26/07 11:41 17.2 16.4 9.3 03:43 360.0
26/07 11:40 17.1 16.3 9.2 03:42 310.0
26/07 11:39 17.1 16.3 9.2 03:41 188.0
26/07 11:38 17.1 16.3 9.2 03:40 242.0
26/07 11:37 17.1 16.3 9.5 03:39 186.0
26/07 11:36 17.1 16.2 9.2 03:38 158.0
26/07 11:35 17.1 16.2 9.2 03:37 216.0
26/07 11:34 17.0 16.1 9.4 03:36 158.0
26/07 11:33 17.0 16.1 9.4 03:35 128.0
26/07 11:32 17.0 16.1 9.4 03:34 112.0
26/07 11:31 17.0 16.1 9.4 03:34 96.0
26/07 11:30 17.1 16.2 9.7 03:34 76.0
26/07 11:29 17.2 16.4 9.8 03:34 62.0
26/07 11:28 17.3 16.5 9.9 03:34 52.0
26/07 11:27 17.6 16.9 10.4 03:34 54.0
26/07 11:26 17.8 17.2 10.4 03:34 58.0
26/07 11:25 17.9 17.3 10.5 03:34 62.0
26/07 11:24 18.1 17.6 10.4 03:34 74.0
26/07 11:23 18.2 17.7 10.5 03:34 80.0
26/07 11:22 18.3 17.9 10.4 03:34 76.0
26/07 11:21 18.3 17.9 10.4 03:34 114.0
26/07 11:20 18.4 18 10.2 03:34 136.0
26/07 11:19 18.4 18 9.9 03:33 266.0
26/07 11:18 18.5 18.1 10 03:32 270.0
26/07 11:17 18.5 18.2 10 03:31 318.0
26/07 11:16 18.5 18.2 10 03:30 340.0
26/07 11:15 18.3 17.9 9.8 03:29 416.0
26/07 11:14 18.3 18 9.8 03:28 340.0
26/07 11:13 18.2 17.9 10 03:27 182.0
26/07 11:12 18.3 18 10.1 03:26 120.0
26/07 11:11 18.2 17.9 10.3 03:26 226.0
26/07 11:10 18.2 17.8 10.3 03:25 340.0
26/07 11:09 18.2 17.8 10.3 03:24 362.0
26/07 11:08 18.2 17.8 10.3 03:23 188.0
26/07 11:07 18.3 17.9 10.4 03:22 122.0
26/07 11:06 18.3 17.9 10.4 03:21 210.0
26/07 11:05 18.3 17.9 10.6 03:20 104.0
26/07 11:04 18.2 17.7 10.5 03:20 80.0
26/07 11:03 18.1 17.5 10.2 03:20 76.0
26/07 11:02 18.1 17.5 10.2 03:20 94.0
26/07 11:01 18.1 17.5 9.9 03:20 364.0
26/07 11:00 18.1 17.5 9.9 03:19 358.0
26/07 10:59 18.2 17.6 10 03:18 248.0
26/07 10:58 18.2 17.6 10 03:18 138.0
26/07 10:57 18.2 17.6 10 03:17 246.0
26/07 10:56 18.1 17.5 9.9 03:17 258.0
26/07 10:55 18.1 17.5 9.9 03:16 116.0
26/07 10:54 18.2 17.7 10 03:15 112.0
26/07 10:53 18.2 17.7 10 03:15 226.0
26/07 10:52 18.2 17.7 10 03:14 342.0
26/07 10:51 18.2 17.7 10.3 03:13 324.0
26/07 10:50 18.1 17.6 10.2 03:12 316.0
26/07 10:49 18.1 17.6 10.2 03:11 314.0
26/07 10:48 18.1 17.6 10.2 03:10 304.0
26/07 10:47 18.0 17.4 10.1 03:09 296.0
26/07 10:46 18.0 17.4 10.1 03:08 270.0
26/07 10:45 18.0 17.4 10.3 03:07 310.0
26/07 10:44 18.0 17.4 10.3 03:06 312.0
26/07 10:43 18.0 17.4 10.3 03:05 314.0
26/07 10:42 17.9 17.2 10.2 03:04 290.0
26/07 10:41 17.9 17.2 10.2 03:03 264.0
26/07 10:40 17.9 17.2 10.2 03:02 310.0
26/07 10:39 17.9 17.2 10 03:01 254.0
26/07 10:38 18.0 17.3 10.6 03:00 298.0
26/07 10:37 18.0 17.3 10.8 02:59 282.0
26/07 10:36 17.9 17.1 10.7 02:58 182.0
26/07 10:35 17.9 17.1 10.9 02:57 236.0
26/07 10:34 17.8 17 11.1 02:56 200.0
26/07 10:33 17.8 17 10.9 02:55 186.0
26/07 10:32 17.8 17 10.9 02:55 250.0
26/07 10:31 17.8 17 11.1 02:54 290.0
26/07 10:30 17.9 17.1 11.4 02:53 278.0
26/07 10:29 18.0 17.3 11.5 02:52 246.0
26/07 10:28 18.0 17.3 11.5 02:51 284.0
26/07 10:27 18.0 17.3 11.5 02:50 294.0
26/07 10:26 18.1 17.4 11.8 02:49 262.0
26/07 10:25 18.1 17.4 11.8 02:48 218.0
26/07 10:24 18.1 17.4 11.6 02:47 114.0
26/07 10:23 18.1 17.5 11.6 02:47 306.0
26/07 10:22 18.1 17.5 11.4 02:46 246.0
26/07 10:21 18.2 17.6 11.5 02:45 246.0
26/07 10:20 18.2 17.6 11.5 02:44 208.0
26/07 10:19 18.1 17.5 11.6 02:43 192.0
26/07 10:18 18.1 17.5 11.4 02:42 218.0
26/07 10:17 18.1 17.5 11.6 02:41 262.0
26/07 10:16 18.1 17.5 11.6 02:40 276.0
26/07 10:15 18.1 17.5 11.4 02:39 220.0
26/07 10:14 18.2 17.7 11.7 02:38 208.0
26/07 10:13 18.2 17.7 11.7 02:37 182.0
26/07 10:12 18.2 17.7 11.7 02:36 168.0
26/07 10:11 18.2 17.7 11.7 02:35 172.0
26/07 10:10 18.1 17.6 11.6 02:34 210.0
26/07 10:09 18.1 17.6 11.6 02:33 184.0
26/07 10:08 18.1 17.5 11.6 02:32 300.0
26/07 10:07 18.1 17.6 11.6 02:31 264.0
26/07 10:06 18.1 17.6 11.6 02:30 286.0
26/07 10:05 18.1 17.6 11.6 02:29 232.0
26/07 10:04 18.1 17.6 11.8 02:28 236.0
26/07 10:03 18.1 17.6 11.6 02:27 224.0
26/07 10:02 18.0 17.5 11.7 02:26 290.0
26/07 10:01 17.9 17.4 11.6 02:25 292.0
26/07 10:00 17.9 17.4 11.6 02:24 224.0
26/07 09:59 17.8 17.3 11.5 02:23 238.0
26/07 09:58 17.9 17.5 11.9 02:22 280.0
26/07 09:57 17.9 17.5 11.9 02:21 274.0
26/07 09:56 17.9 17.6 11.9 02:20 224.0
26/07 09:55 17.9 17.6 11.9 02:19 248.0
26/07 09:54 17.9 17.6 11.9 02:18 264.0
26/07 09:53 18.0 17.7 12 02:17 288.0
26/07 09:52 18.1 17.9 12.1 02:16 250.0
26/07 09:51 18.2 18 12.2 02:15 298.0
26/07 09:50 18.3 18.1 12.3 02:14 130.0
26/07 09:49 18.3 18.1 12.5 02:13 140.0
26/07 09:48 18.3 18 12.5 02:12 286.0
26/07 09:47 18.2 17.8 12.6 02:11 138.0
26/07 09:46 18.2 17.8 12.6 02:10 180.0
26/07 09:45 18.2 17.8 12.4 02:10 86.0
26/07 09:44 18.3 17.9 12.3 02:10 138.0
26/07 09:43 18.3 17.9 12.3 02:09 246.0
26/07 09:42 18.3 17.9 12.3 02:08 112.0
26/07 09:41 18.3 17.8 12.3 02:08 118.0
26/07 09:40 18.3 17.8 12.3 02:08 198.0
26/07 09:39 18.3 17.8 12.3 02:07 106.0
26/07 09:38 18.2 17.7 11.9 02:07 220.0
26/07 09:37 18.2 17.6 11.9 02:06 280.0
26/07 09:36 18.2 17.6 11.9 02:05 290.0
26/07 09:35 18.3 17.8 12.3 02:04 272.0
26/07 09:34 18.3 17.8 12.5 02:03 164.0
26/07 09:33 18.2 17.6 12.2 02:03 242.0
26/07 09:32 18.2 17.6 12.4 02:02 268.0
26/07 09:31 18.2 17.6 12.2 02:01 262.0
26/07 09:30 18.3 17.7 12.3 02:00 252.0
26/07 09:29 18.3 17.7 12.5 01:59 142.0
26/07 09:28 18.2 17.6 12.2 01:58 156.0
26/07 09:27 18.3 17.7 12.3 01:57 208.0
26/07 09:26 18.3 17.7 12.3 01:56 180.0
26/07 09:25 18.3 17.7 12.5 01:55 210.0
26/07 09:24 18.3 17.7 12.7 01:54 172.0
26/07 09:23 18.3 17.7 12.9 01:53 192.0
26/07 09:22 18.2 17.6 12.8 01:52 204.0
26/07 09:21 18.2 17.6 12.8 01:51 204.0
26/07 09:20 18.2 17.6 12.6 01:50 240.0
26/07 09:19 18.2 17.6 12.6 01:49 222.0
26/07 09:18 18.2 17.6 12.8 01:48 222.0
26/07 09:17 18.1 17.5 12.7 01:47 232.0
26/07 09:16 18.1 17.5 12.7 01:46 214.0
26/07 09:15 18.2 17.6 12.8 01:45 180.0
26/07 09:14 18.2 17.6 12.8 01:44 164.0
26/07 09:13 18.3 17.8 12.9 01:43 162.0
26/07 09:12 18.3 17.8 13.1 01:43 152.0
26/07 09:11 18.4 17.9 13.2 01:42 146.0
26/07 09:10 18.3 17.8 13.3 01:41 204.0
26/07 09:09 18.2 17.6 13.2 01:40 232.0
26/07 09:08 18.1 17.5 13.2 01:39 244.0
26/07 09:07 18.1 17.5 13.2 01:38 192.0
26/07 09:06 18.1 17.5 13.4 01:37 198.0
26/07 09:05 18.2 17.7 13.5 01:36 222.0
26/07 09:04 18.2 17.7 13.7 01:35 232.0
26/07 09:03 18.3 17.8 13.6 01:34 204.0
26/07 09:02 18.4 18 13.4 01:33 194.0
26/07 09:01 18.7 18.4 13.7 01:32 208.0
26/07 09:00 18.9 18.7 13.9 01:31 80.0
26/07 08:59 19.3 19.2 14.1 01:31 98.0
26/07 08:58 19.6 19.6 14.4 01:31 106.0
26/07 08:57 20.0 20.2 14.6 01:31 122.0
26/07 08:56 20.0 20.2 14.8 01:30 204.0
26/07 08:55 20.0 20.2 14.6 01:29 172.0
26/07 08:54 20.1 20.3 14.6 01:28 126.0
26/07 08:53 20.1 20.3 14.6 01:28 204.0
26/07 08:52 20.1 20.4 14.6 01:27 194.0
26/07 08:51 20.1 20.4 14.6 01:26 220.0
26/07 08:50 20.1 20.4 14.6 01:25 248.0
26/07 08:49 20.2 20.5 14.7 01:24 238.0
26/07 08:48 20.1 20.4 15.1 01:23 224.0
26/07 08:47 20.1 20.4 14.9 01:22 214.0
26/07 08:46 20.2 20.6 15 01:21 202.0
26/07 08:45 20.2 20.6 15 01:20 164.0
26/07 08:44 20.2 20.6 15 01:19 150.0
26/07 08:43 20.2 20.6 15 01:18 170.0
26/07 08:42 20.2 20.6 15 01:17 198.0
26/07 08:41 20.1 20.5 14.9 01:16 204.0
26/07 08:40 20.2 20.6 15 01:15 198.0
26/07 08:39 20.2 20.6 14.7 01:14 208.0
26/07 08:38 20.2 20.6 15 01:13 220.0
26/07 08:37 20.2 20.7 15 01:12 230.0
26/07 08:36 20.1 20.5 14.9 01:11 202.0
26/07 08:35 20.0 20.4 14.8 01:10 202.0
26/07 08:34 20.0 20.4 14.8 01:09 212.0
26/07 08:33 20.0 20.3 15 01:08 188.0
26/07 08:32 20.0 20.4 15 01:07 186.0
26/07 08:31 19.9 20.2 14.9 01:06 196.0
26/07 08:30 19.9 20.2 15.1 01:05 164.0
26/07 08:29 19.9 20.2 14.9 01:04 194.0
26/07 08:28 19.9 20.1 14.9 01:03 200.0
26/07 08:27 19.9 20.1 14.9 01:02 192.0
26/07 08:26 20.0 20.3 15 01:01 130.0
26/07 08:25 19.9 20.1 14.9 01:01 164.0
26/07 08:24 19.9 20.1 14.9 01:00 212.0
26/07 08:23 19.9 20.2 14.9 00:59 204.0
26/07 08:22 20.0 20.3 15 00:58 202.0
26/07 08:21 20.0 20.3 15 00:57 186.0
26/07 08:20 20.0 20.4 15 00:56 188.0
26/07 08:19 20.0 20.4 15 00:55 186.0
26/07 08:18 20.0 20.4 14.8 00:54 154.0
26/07 08:17 20.1 20.5 14.9 00:53 168.0
26/07 08:16 20.1 20.5 14.9 00:52 164.0
26/07 08:15 20.2 20.7 15 00:51 188.0
26/07 08:14 20.2 20.7 15 00:50 178.0
26/07 08:13 20.2 20.8 14.7 00:49 192.0
26/07 08:12 20.2 20.8 15 00:48 150.0
26/07 08:11 20.3 20.9 14.8 00:48 104.0
26/07 08:10 20.3 20.8 14.8 00:47 176.0
26/07 08:09 20.3 20.8 14.8 00:46 180.0
26/07 08:08 20.3 20.8 14.8 00:45 188.0
26/07 08:07 20.3 20.9 14.8 00:44 184.0
26/07 08:06 20.3 20.9 14.8 00:43 154.0
26/07 08:05 20.3 21 14.8 00:42 150.0
26/07 08:04 20.3 21 14.8 00:41 136.0
26/07 08:03 20.2 20.9 14.7 00:41 162.0
26/07 08:02 20.3 21 14.8 00:40 134.0
26/07 08:01 20.3 20.9 14.8 00:39 136.0
26/07 08:00 20.3 21 14.8 00:38 132.0
26/07 07:59 20.4 21.1 14.9 00:37 130.0
26/07 07:58 20.4 21.1 14.9 00:36 148.0
26/07 07:57 20.4 21.1 14.9 00:35 136.0
26/07 07:56 20.4 21.1 14.9 00:34 164.0
26/07 07:55 20.4 21.1 15.2 00:33 174.0
26/07 07:54 20.3 20.9 14.8 00:32 180.0
26/07 07:53 20.3 20.8 14.8 00:31 178.0
26/07 07:52 20.3 20.8 14.8 00:30 172.0
26/07 07:51 20.2 20.6 14.7 00:29 168.0
26/07 07:50 20.2 20.7 14.7 00:28 166.0
26/07 07:49 20.3 20.8 14.8 00:27 128.0
26/07 07:48 20.3 20.8 14.6 00:27 118.0
26/07 07:47 20.3 20.8 14.8 00:26 128.0
26/07 07:46 20.3 20.8 14.8 00:26 156.0
26/07 07:45 20.3 20.8 14.8 00:25 116.0
26/07 07:44 20.3 20.8 14.8 00:24 158.0
26/07 07:43 20.3 20.8 14.6 00:23 150.0
26/07 07:42 20.3 20.8 14.6 00:22 154.0
26/07 07:41 20.3 20.9 14.6 00:21 152.0
26/07 07:40 20.3 20.9 14.8 00:20 150.0
26/07 07:39 20.3 20.9 14.8 00:19 150.0
26/07 07:38 20.2 20.8 14.7 00:18 148.0
26/07 07:37 20.2 20.8 14.5 00:17 148.0
26/07 07:36 20.2 20.8 14.7 00:16 146.0
26/07 07:35 20.2 20.8 14.7 00:15 144.0
26/07 07:34 20.2 20.9 14.7 00:14 144.0
26/07 07:33 20.2 20.9 14.7 00:13 142.0
26/07 07:32 20.2 20.9 14.7 00:12 140.0
26/07 07:31 20.2 20.9 15 00:11 140.0
26/07 07:30 20.1 20.8 14.9 00:10 138.0
26/07 07:29 20.1 20.8 14.9 00:09 136.0
26/07 07:28 20.0 20.7 15 00:08 134.0
26/07 07:27 20.0 20.7 15 00:07 132.0
26/07 07:26 19.9 20.7 14.9 00:06 132.0
26/07 07:25 19.9 20.7 14.9 00:05 132.0
26/07 07:24 19.8 20.6 15 00:04 102.0
26/07 07:23 19.8 20.7 15 00:04 128.0
26/07 07:22 19.7 20.6 14.9 00:03 126.0
26/07 07:21 19.6 20.5 15 00:02 124.0
26/07 07:20 19.5 20.5 14.9 00:01 122.0
26/07 07:19 19.5 20.5 15.1 00:00 102.0
26/07 07:18 19.4 20.4 15 00:00 50.0
26/07 07:17 19.4 20.4 15 00:00 90.0
26/07 07:16 19.3 20.3 14.9 00:00 40.0
26/07 07:14 19.3 20.3 15.1 00:00 22.0
26/07 07:13 19.3 20.3 14.9 00:00 22.0
26/07 07:12 19.2 20.1 15 00:00 22.0
26/07 07:11 19.2 20.1 15 00:00 22.0
26/07 07:10 19.2 20.1 15 00:00 42.0
26/07 07:09 19.1 19.9 14.9 00:00 38.0
26/07 07:08 19.0 19.9 15.1 00:00 26.0
26/07 07:07 19.0 19.9 15.1 00:00 22.0
26/07 07:06 18.9 19.9 15 00:00 22.0
26/07 07:05 18.9 19.8 15 00:00 30.0
26/07 07:04 18.9 19.8 15 00:00 26.0
26/07 07:03 18.8 19.7 14.9 00:00 32.0
26/07 07:02 18.8 19.6 15.1 00:00 42.0
26/07 07:01 18.7 19.5 15 00:00 44.0
26/07 07:00 18.6 19.4 14.9 00:00 24.0
26/07 06:59 18.6 19.4 14.9 00:00 22.0
26/07 06:58 18.6 19.4 14.9 00:00 20.0
26/07 06:57 18.6 19.4 14.9 00:00 20.0
26/07 06:56 18.7 19.4 14.8 00:00 18.0
26/07 06:55 18.7 19.4 14.8 00:00 16.0
26/07 06:54 18.7 19.4 14.8 00:00 18.0
26/07 06:53 18.7 19.4 14.8 00:00 18.0
26/07 06:52 18.7 19.3 14.8 00:00 20.0
26/07 06:51 18.6 19.2 14.7 00:00 20.0
26/07 06:50 18.6 19.2 14.9 00:00 20.0
26/07 06:49 18.6 19.3 14.9 00:00 16.0
26/07 06:48 18.6 19.2 14.9 00:00 16.0
26/07 06:47 18.5 19.2 14.8 00:00 16.0
26/07 06:46 18.5 19.2 14.8 00:00 18.0
26/07 06:45 18.5 19.2 14.8 00:00 24.0
26/07 06:44 18.5 19.2 14.8 00:00 30.0
26/07 06:43 18.4 19.1 14.9 00:00 34.0
26/07 06:42 18.4 19.1 14.9 00:00 34.0
26/07 06:41 18.3 19.1 14.8 00:00 34.0
26/07 06:40 18.2 19 14.9 00:00 30.0
26/07 06:39 18.2 19.1 14.9 00:00 28.0
26/07 06:38 18.1 19 14.8 00:00 28.0
26/07 06:37 18.1 19 14.8 00:00 24.0
26/07 06:36 18.0 18.9 14.9 00:00 20.0
26/07 06:35 18.0 18.9 14.9 00:00 20.0
26/07 06:34 18.0 19 14.9 00:00 22.0
26/07 06:33 17.9 18.8 14.8 00:00 24.0
26/07 06:32 17.9 18.9 14.8 00:00 28.0
26/07 06:31 17.9 18.8 14.8 00:00 30.0
26/07 06:30 17.9 18.8 14.8 00:00 32.0
26/07 06:29 17.9 18.8 14.8 00:00 32.0
26/07 06:28 17.8 18.6 14.7 00:00 30.0
26/07 06:27 17.9 18.7 14.8 00:00 28.0
26/07 06:26 17.9 18.7 14.8 00:00 26.0
26/07 06:25 17.9 18.7 14.8 00:00 24.0
26/07 06:24 17.9 18.7 14.6 00:00 20.0
26/07 06:23 17.9 18.7 14.6 00:00 18.0
26/07 06:22 17.9 18.7 14.6 00:00 16.0
26/07 06:21 17.9 18.8 14.6 00:00 14.0
26/07 06:20 17.9 18.8 14.6 00:00 14.0
26/07 06:19 17.9 18.8 14.6 00:00 12.0
26/07 06:18 17.9 18.9 14.6 00:00 10.0
26/07 06:17 17.9 18.9 14.6 00:00 10.0
26/07 06:16 17.9 19 14.6 00:00 8.0
26/07 06:15 17.9 19 14.6 00:00 8.0
26/07 06:14 17.9 19.1 14.6 00:00 8.0
26/07 06:13 17.9 19 14.6 00:00 8.0
26/07 06:12 17.9 19 14.6 00:00 8.0
26/07 06:11 17.9 19 14.6 00:00 8.0
26/07 06:10 17.9 18.9 14.6 00:00 8.0
26/07 06:09 17.9 18.8 14.6 00:00 8.0
26/07 06:08 17.9 18.8 14.6 00:00 8.0
26/07 06:07 17.9 18.7 14.8 00:00 8.0
26/07 06:06 17.9 18.6 14.8 00:00 8.0
26/07 06:05 17.9 18.6 14.8 00:00 8.0
26/07 06:04 17.9 18.5 14.8 00:00 8.0
26/07 06:03 17.8 18.3 14.7 00:00 8.0
26/07 06:02 17.8 18.2 14.7 00:00 8.0
26/07 06:01 17.8 18.2 14.7 00:00 6.0
26/07 06:00 17.8 18.2 14.7 00:00 6.0
26/07 05:59 17.8 18.1 14.7 00:00 6.0
26/07 05:58 17.8 18.1 14.9 00:00 6.0
26/07 05:57 17.7 18 14.8 00:00 6.0
26/07 05:56 17.6 17.9 14.7 00:00 6.0
26/07 05:55 17.5 17.7 14.7 00:00 4.0
26/07 05:54 17.5 17.7 14.7 00:00 4.0
26/07 05:53 17.4 17.6 14.8 00:00 4.0
26/07 05:52 17.2 17.4 14.8 00:00 4.0
26/07 05:51 17.1 17.3 14.7 00:00 6.0
26/07 05:50 17.1 17.3 14.7 00:00 6.0
26/07 05:49 17.1 17.3 14.7 00:00 6.0
26/07 05:48 17.1 17.3 14.7 00:00 6.0
26/07 05:47 17.2 17.4 14.6 00:00 6.0
26/07 05:46 17.2 17.4 14.6 00:00 6.0
26/07 05:45 17.3 17.5 14.7 00:00 6.0
26/07 05:44 17.3 17.5 14.7 00:00 6.0
26/07 05:43 17.2 17.4 14.6 00:00 6.0
26/07 05:42 17.2 17.4 14.8 00:00 6.0
26/07 05:41 17.1 17.3 14.7 00:00 6.0
26/07 05:40 17.1 17.2 14.7 00:00 6.0
26/07 05:39 17.0 17.1 14.6 00:00 6.0
26/07 05:38 17.0 17.1 14.8 00:00 6.0
26/07 05:37 17.0 17.1 14.8 00:00 6.0
26/07 05:36 17.0 17.1 14.8 00:00 6.0
26/07 05:35 17.0 17 14.8 00:00 6.0
26/07 05:34 17.0 17 14.6 00:00 6.0
26/07 05:33 17.0 17 14.6 00:00 6.0
26/07 05:32 17.1 17.1 14.7 00:00 6.0
26/07 05:31 17.1 17.1 14.7 00:00 6.0
26/07 05:30 17.0 17 14.8 00:00 6.0
26/07 05:29 17.0 17.1 14.8 00:00 4.0
26/07 05:28 17.0 17.1 14.8 00:00 4.0
26/07 05:27 16.9 17 14.7 00:00 4.0
26/07 05:26 16.9 17 14.7 00:00 4.0
26/07 05:25 17.0 17.1 14.8 00:00 4.0
26/07 05:24 17.0 17.1 14.8 00:00 4.0
26/07 05:23 17.0 17.2 14.8 00:00 4.0
26/07 05:22 17.0 17.2 14.8 00:00 4.0
26/07 05:21 17.0 17.2 14.8 00:00 4.0
26/07 05:20 17.1 17.3 14.9 00:00 4.0
26/07 05:19 17.1 17.4 14.9 00:00 4.0
26/07 05:18 17.1 17.3 14.9 00:00 4.0
26/07 05:17 17.0 17.2 14.8 00:00 0.0
26/07 05:16 17.0 17.2 14.8 00:00 0.0
26/07 05:15 17.0 17.2 14.8 00:00 0.0
26/07 05:14 17.0 17.2 14.8 00:00 0.0
26/07 05:13 17.0 17.2 14.8 00:00 0.0
26/07 05:12 17.0 17.2 14.8 00:00 0.0
26/07 05:11 17.1 17.3 14.9 00:00 0.0
26/07 05:10 17.1 17.3 14.9 00:00 0.0
26/07 05:09 17.1 17.4 14.9 00:00 0.0
26/07 05:08 17.1 17.4 14.9 00:00 0.0
26/07 05:07 17.1 17.4 14.9 00:00 0.0
26/07 05:06 17.1 17.4 14.9 00:00 0.0
26/07 05:05 17.1 17.5 14.7 00:00 0.0
26/07 05:04 17.2 17.6 15 00:00 0.0
26/07 05:03 17.2 17.6 15 00:00 0.0
26/07 05:02 17.1 17.5 14.9 00:00 0.0
26/07 05:01 17.1 17.5 14.9 00:00 0.0
26/07 05:00 17.1 17.5 14.9 00:00 0.0
26/07 04:59 17.1 17.5 14.9 00:00 0.0
26/07 04:58 17.1 17.5 14.9 00:00 0.0
26/07 04:57 17.0 17.3 14.8 00:00 0.0
26/07 04:56 17.0 17.3 14.8 00:00 0.0
26/07 04:55 17.0 17.3 14.8 00:00 0.0
26/07 04:54 17.0 17.3 14.8 00:00 0.0
26/07 04:53 17.0 17.3 14.8 00:00 0.0
26/07 04:52 17.0 17.3 14.8 00:00 0.0
26/07 04:51 17.0 17.3 14.8 00:00 0.0
26/07 04:50 17.0 17.3 14.8 00:00 0.0
26/07 04:49 17.0 17.3 14.8 00:00 0.0
26/07 04:48 17.0 17.3 14.8 00:00 0.0
26/07 04:47 17.0 17.3 14.8 00:00 0.0
26/07 04:46 17.0 17.3 14.8 00:00 0.0
26/07 04:45 17.0 17.3 14.8 00:00 0.0
26/07 04:44 17.0 17.2 14.8 00:00 0.0
26/07 04:42 17.0 17.2 14.8 00:00 0.0
26/07 04:41 17.0 17.2 14.8 00:00 0.0
26/07 04:40 17.0 17.2 14.8 00:00 4.0
26/07 04:39 17.1 17.4 14.9 00:00 4.0
26/07 04:38 17.1 17.4 14.9 00:00 4.0
26/07 04:37 17.1 17.4 14.9 00:00 4.0
26/07 04:36 17.1 17.4 14.9 00:00 0.0
26/07 04:35 17.1 17.5 14.9 00:00 4.0
26/07 04:34 17.1 17.5 14.9 00:00 4.0
26/07 04:33 17.1 17.6 14.9 00:00 0.0
26/07 04:32 17.2 17.7 15 00:00 0.0
26/07 04:31 17.1 17.7 14.9 00:00 0.0
26/07 04:30 17.1 17.7 14.9 00:00 0.0
26/07 04:29 17.1 17.7 14.9 00:00 4.0
26/07 04:28 17.1 17.7 14.9 00:00 0.0
26/07 04:27 17.1 17.7 14.9 00:00 4.0
26/07 04:26 17.1 17.7 14.9 00:00 4.0
26/07 04:25 17.1 17.8 14.9 00:00 0.0
26/07 04:24 17.1 17.8 14.9 00:00 4.0
26/07 04:23 17.1 17.7 14.9 00:00 0.0
26/07 04:22 17.1 17.7 14.9 00:00 0.0
26/07 04:21 17.1 17.7 14.9 00:00 0.0
26/07 04:20 17.1 17.7 14.9 00:00 4.0
26/07 04:19 17.1 17.7 14.9 00:00 4.0
26/07 04:18 17.1 17.7 15.1 00:00 4.0
26/07 04:17 17.1 17.7 15.1 00:00 4.0
26/07 04:16 17.1 17.7 15.1 00:00 4.0
26/07 04:15 17.1 17.7 15.1 00:00 4.0
26/07 04:14 17.1 17.7 15.1 00:00 0.0
26/07 04:13 17.1 17.6 15.1 00:00 4.0
26/07 04:12 17.0 17.5 15 00:00 4.0
26/07 04:11 17.0 17.5 15 00:00 0.0
26/07 04:10 17.0 17.4 15 00:00 4.0
26/07 04:09 17.0 17.4 15 00:00 0.0
26/07 04:08 17.0 17.4 15 00:00 4.0
26/07 04:07 17.0 17.4 15 00:00 0.0
26/07 04:06 17.0 17.4 15 00:00 4.0
26/07 04:05 17.0 17.3 15 00:00 4.0
26/07 04:04 17.0 17.3 15 00:00 4.0
26/07 04:03 17.0 17.4 15 00:00 4.0
26/07 04:02 17.0 17.4 15 00:00 0.0
26/07 04:01 17.0 17.4 15 00:00 4.0
26/07 04:00 17.0 17.3 15 00:00 4.0
26/07 03:59 17.0 17.3 15 00:00 4.0
26/07 03:58 17.0 17.4 15 00:00 4.0
26/07 03:57 17.0 17.4 15 00:00 4.0
26/07 03:56 17.0 17.4 15 00:00 4.0
26/07 03:55 17.0 17.4 15 00:00 4.0
26/07 03:54 17.0 17.4 15 00:00 4.0
26/07 03:53 17.0 17.5 15 00:00 4.0
26/07 03:52 17.0 17.5 15 00:00 4.0
26/07 03:51 17.0 17.5 15 00:00 0.0
26/07 03:50 17.0 17.5 15 00:00 4.0
26/07 03:49 17.0 17.5 15 00:00 0.0
26/07 03:48 17.0 17.6 15 00:00 4.0
26/07 03:47 17.0 17.6 15 00:00 4.0
26/07 03:46 17.0 17.6 15 00:00 4.0
26/07 03:45 17.0 17.6 15 00:00 4.0
26/07 03:44 17.0 17.6 15 00:00 4.0
26/07 03:43 17.0 17.6 15 00:00 4.0
26/07 03:42 17.0 17.6 15 00:00 4.0
26/07 03:41 17.0 17.6 15 00:00 4.0
26/07 03:40 17.0 17.6 15 00:00 4.0
26/07 03:39 17.0 17.6 15 00:00 4.0
26/07 03:38 17.0 17.6 15 00:00 0.0
26/07 03:37 17.0 17.6 15 00:00 0.0
26/07 03:36 17.0 17.6 15 00:00 0.0
26/07 03:35 17.0 17.6 15 00:00 4.0
26/07 03:34 17.0 17.6 15 00:00 4.0
26/07 03:33 17.0 17.6 15 00:00 4.0
26/07 03:32 17.0 17.6 15 00:00 4.0
26/07 03:31 17.0 17.5 15 00:00 4.0
26/07 03:30 17.0 17.5 15 00:00 4.0
26/07 03:29 17.0 17.5 15 00:00 4.0
26/07 03:28 17.0 17.5 15 00:00 4.0
26/07 03:27 17.0 17.5 15 00:00 4.0
26/07 03:26 17.0 17.4 15 00:00 4.0
26/07 03:25 16.9 17.3 15.1 00:00 4.0
26/07 03:24 16.9 17.2 15.1 00:00 4.0
26/07 03:23 16.9 17.2 15.1 00:00 4.0
26/07 03:22 16.9 17.2 15.1 00:00 4.0
26/07 03:21 16.9 17.2 15.1 00:00 4.0
26/07 03:20 16.9 17.2 15.1 00:00 4.0
26/07 03:19 16.9 17.2 15.1 00:00 0.0
26/07 03:18 16.9 17.2 15.1 00:00 4.0
26/07 03:17 16.8 17.1 15 00:00 4.0
26/07 03:16 16.8 17.1 15 00:00 4.0
26/07 03:15 16.8 17.1 15 00:00 0.0
26/07 03:14 16.8 17.1 15 00:00 4.0
26/07 03:13 16.8 17.1 15.1 00:00 4.0
26/07 03:12 16.8 17.1 15.1 00:00 4.0
26/07 03:11 16.8 17.1 15.1 00:00 4.0
26/07 03:10 16.7 17.1 15 00:00 4.0
26/07 03:09 16.7 17.1 15 00:00 4.0
26/07 03:08 16.7 17 15 00:00 4.0
26/07 03:07 16.7 17 15 00:00 4.0
26/07 03:06 16.7 17 15 00:00 4.0
26/07 03:05 16.7 17 15 00:00 4.0
26/07 03:04 16.7 17 15 00:00 0.0
26/07 03:03 16.7 17 15 00:00 4.0
26/07 03:02 16.6 16.8 14.9 00:00 4.0
26/07 03:01 16.6 16.8 14.9 00:00 4.0
26/07 03:00 16.6 16.7 14.9 00:00 4.0
26/07 02:59 16.6 16.7 14.9 00:00 4.0
26/07 02:58 16.6 16.7 14.9 00:00 0.0
26/07 02:57 16.6 16.6 14.9 00:00 4.0
26/07 02:56 16.6 16.6 14.9 00:00 4.0
26/07 02:55 16.6 16.6 14.9 00:00 4.0
26/07 02:54 16.5 16.5 14.8 00:00 4.0
26/07 02:53 16.5 16.4 14.8 00:00 4.0
26/07 02:52 16.5 16.4 14.8 00:00 4.0
26/07 02:51 16.5 16.4 14.8 00:00 4.0
26/07 02:50 16.5 16.4 14.8 00:00 4.0
26/07 02:49 16.5 16.4 14.8 00:00 4.0
26/07 02:48 16.5 16.4 14.8 00:00 4.0
26/07 02:47 16.5 16.4 14.8 00:00 0.0
26/07 02:46 16.5 16.4 14.8 00:00 4.0
26/07 02:45 16.5 16.3 14.8 00:00 4.0
26/07 02:44 16.5 16.3 14.8 00:00 0.0
26/07 02:43 16.5 16.3 14.8 00:00 0.0
26/07 02:42 16.5 16.3 14.8 00:00 4.0
26/07 02:41 16.5 16.2 14.8 00:00 4.0
26/07 02:40 16.5 16.2 14.8 00:00 4.0
26/07 02:39 16.5 16.2 14.8 00:00 4.0
26/07 02:38 16.4 16 14.7 00:00 4.0
26/07 02:37 16.4 16 14.7 00:00 4.0
26/07 02:36 16.4 16 14.7 00:00 4.0
26/07 02:35 16.4 16 14.7 00:00 4.0
26/07 02:34 16.4 16 14.7 00:00 0.0
26/07 02:33 16.4 16 14.7 00:00 4.0
26/07 02:32 16.4 16 14.7 00:00 4.0
26/07 02:31 16.5 16.1 14.8 00:00 4.0
26/07 02:30 16.5 16.2 14.8 00:00 4.0
26/07 02:29 16.5 16.2 14.8 00:00 4.0
26/07 02:28 16.5 16.2 14.8 00:00 4.0
26/07 02:27 16.5 16.2 14.8 00:00 4.0
26/07 02:26 16.5 16.2 14.8 00:00 4.0
26/07 02:25 16.5 16.2 14.8 00:00 4.0
26/07 02:24 16.5 16.2 14.8 00:00 4.0
26/07 02:23 16.5 16.3 14.8 00:00 4.0
26/07 02:22 16.5 16.3 14.8 00:00 4.0
26/07 02:21 16.5 16.3 14.8 00:00 4.0
26/07 02:20 16.5 16.3 14.8 00:00 0.0
26/07 02:19 16.5 16.3 14.8 00:00 4.0
26/07 02:18 16.5 16.4 14.8 00:00 4.0
26/07 02:17 16.5 16.3 14.8 00:00 4.0
26/07 02:16 16.6 16.5 14.9 00:00 0.0
26/07 02:15 16.6 16.5 14.9 00:00 0.0
26/07 02:14 16.6 16.6 14.9 00:00 4.0
26/07 02:13 16.6 16.6 14.9 00:00 4.0
26/07 02:12 16.6 16.6 14.9 00:00 0.0
26/07 02:11 16.6 16.5 14.9 00:00 0.0
26/07 02:10 16.6 16.5 14.9 00:00 4.0
26/07 02:09 16.6 16.5 14.9 00:00 4.0
26/07 02:08 16.6 16.5 14.8 00:00 4.0
26/07 02:07 16.6 16.5 14.8 00:00 4.0
26/07 02:06 16.6 16.5 14.8 00:00 4.0
26/07 02:05 16.6 16.4 14.8 00:00 4.0
26/07 02:04 16.6 16.4 14.8 00:00 4.0
26/07 02:03 16.6 16.4 14.8 00:00 0.0
26/07 02:02 16.6 16.4 14.8 00:00 4.0
26/07 02:01 16.6 16.3 14.8 00:00 4.0
26/07 02:00 16.6 16.3 14.8 00:00 4.0
26/07 01:59 16.6 16.3 14.8 00:00 4.0
26/07 01:58 16.6 16.3 14.8 00:00 4.0
26/07 01:57 16.6 16.3 14.8 00:00 4.0
26/07 01:56 16.6 16.3 14.8 00:00 4.0
26/07 01:55 16.6 16.3 14.8 00:00 4.0
26/07 01:54 16.6 16.3 14.8 00:00 4.0
26/07 01:53 16.6 16.3 14.8 00:00 0.0
26/07 01:52 16.6 16.3 14.8 00:00 4.0
26/07 01:50 16.6 16.3 14.8 00:00 4.0
26/07 01:49 16.6 16.3 14.8 00:00 4.0
26/07 01:48 16.6 16.3 14.8 00:00 4.0
26/07 01:47 16.6 16.3 14.8 00:00 4.0
26/07 01:46 16.6 16.3 14.8 00:00 4.0
26/07 01:45 16.6 16.4 14.8 00:00 4.0
26/07 01:44 16.6 16.4 14.8 00:00 4.0
26/07 01:43 16.6 16.4 14.8 00:00 0.0
26/07 01:42 16.6 16.4 14.8 00:00 4.0
26/07 01:41 16.6 16.4 14.8 00:00 4.0
26/07 01:40 16.6 16.4 14.8 00:00 4.0
26/07 01:39 16.6 16.4 14.8 00:00 0.0
26/07 01:38 16.6 16.4 14.8 00:00 4.0
26/07 01:37 16.6 16.4 14.8 00:00 4.0
26/07 01:36 16.6 16.4 14.8 00:00 0.0
26/07 01:35 16.6 16.4 14.8 00:00 4.0
26/07 01:34 16.6 16.4 14.8 00:00 4.0
26/07 01:33 16.6 16.4 14.8 00:00 4.0
26/07 01:30 16.6 16.5 14.8 00:00 4.0
26/07 01:28 16.6 16.5 14.8 00:00 4.0
26/07 01:27 16.6 16.6 14.8 00:00 4.0
26/07 01:26 16.6 16.6 14.8 00:00 4.0
26/07 01:25 16.6 16.6 14.8 00:00 4.0
26/07 01:24 16.6 16.6 14.8 00:00 4.0
26/07 01:23 16.6 16.6 14.8 00:00 4.0
26/07 01:22 16.6 16.6 14.8 00:00 4.0
26/07 01:21 16.5 16.5 14.7 00:00 0.0
26/07 01:20 16.5 16.5 14.7 00:00 4.0
26/07 01:19 16.5 16.5 14.7 00:00 4.0
26/07 01:18 16.5 16.5 14.7 00:00 4.0
26/07 01:17 16.5 16.4 14.7 00:00 4.0
26/07 01:16 16.5 16.4 14.7 00:00 4.0
26/07 01:15 16.5 16.4 14.7 00:00 0.0
26/07 01:14 16.5 16.3 14.7 00:00 4.0
26/07 01:13 16.5 16.3 14.7 00:00 4.0
26/07 01:12 16.5 16.2 14.7 00:00 4.0
26/07 01:11 16.5 16.2 14.7 00:00 4.0
26/07 01:10 16.5 16.2 14.7 00:00 4.0
26/07 01:09 16.5 16.2 14.7 00:00 4.0
26/07 01:08 16.5 16.1 14.7 00:00 4.0
26/07 01:07 16.5 16.1 14.7 00:00 4.0
26/07 01:06 16.5 16.1 14.7 00:00 0.0
26/07 01:05 16.5 16.1 14.7 00:00 4.0
26/07 01:04 16.5 16.1 14.7 00:00 4.0
26/07 01:03 16.5 16.1 14.7 00:00 4.0
26/07 01:02 16.5 16.1 14.7 00:00 4.0
26/07 01:01 16.5 16.1 14.7 00:00 0.0
26/07 01:00 16.5 16.1 14.7 00:00 4.0
26/07 00:59 16.5 16.1 14.7 00:00 0.0
26/07 00:58 16.5 16.2 14.5 00:00 4.0
26/07 00:57 16.5 16.2 14.5 00:00 4.0
26/07 00:56 16.5 16.3 14.5 00:00 4.0
26/07 00:55 16.5 16.3 14.5 00:00 4.0
26/07 00:54 16.5 16.4 14.5 00:00 4.0
26/07 00:53 16.6 16.6 14.6 00:00 4.0
26/07 00:52 16.6 16.6 14.6 00:00 4.0
26/07 00:51 16.6 16.7 14.6 00:00 4.0
26/07 00:50 16.7 16.8 14.5 00:00 4.0
26/07 00:49 16.7 16.9 14.5 00:00 0.0
26/07 00:48 16.8 17 14.6 00:00 4.0
26/07 00:47 16.8 17 14.8 00:00 4.0
26/07 00:46 16.8 17 14.8 00:00 0.0
26/07 00:45 16.8 17 14.8 00:00 0.0
26/07 00:44 16.7 16.9 14.7 00:00 4.0
26/07 00:43 16.7 16.8 14.7 00:00 4.0
26/07 00:42 16.7 16.8 14.7 00:00 4.0
26/07 00:41 16.7 16.7 14.7 00:00 0.0
26/07 00:40 16.6 16.6 14.6 00:00 4.0
26/07 00:39 16.6 16.6 14.6 00:00 4.0
26/07 00:38 16.6 16.6 14.6 00:00 4.0
26/07 00:37 16.5 16.5 14.5 00:00 0.0
26/07 00:36 16.5 16.4 14.5 00:00 4.0
26/07 00:35 16.5 16.4 14.5 00:00 4.0
26/07 00:34 16.5 16.5 14.5 00:00 4.0
26/07 00:33 16.6 16.6 14.6 00:00 4.0
26/07 00:32 16.6 16.6 14.4 00:00 4.0
26/07 00:31 16.6 16.6 14.4 00:00 4.0
26/07 00:30 16.7 16.8 14.5 00:00 4.0
26/07 00:29 16.7 16.8 14.5 00:00 4.0
26/07 00:28 16.7 16.8 14.5 00:00 4.0
26/07 00:27 16.7 16.8 14.5 00:00 4.0
26/07 00:26 16.7 16.9 14.7 00:00 4.0
26/07 00:25 16.6 16.7 14.6 00:00 0.0
26/07 00:24 16.6 16.7 14.6 00:00 4.0
26/07 00:23 16.6 16.7 14.6 00:00 4.0
26/07 00:22 16.6 16.7 14.6 00:00 0.0
26/07 00:21 16.6 16.6 14.6 00:00 4.0
26/07 00:20 16.5 16.5 14.5 00:00 4.0
26/07 00:19 16.5 16.5 14.5 00:00 4.0
26/07 00:18 16.5 16.4 14.3 00:00 0.0
26/07 00:17 16.5 16.4 14.3 00:00 4.0
26/07 00:16 16.6 16.5 14.4 00:00 4.0
26/07 00:15 16.6 16.5 14.4 00:00 4.0
26/07 00:14 16.6 16.5 14.4 00:00 0.0
26/07 00:13 16.6 16.5 14.4 00:00 0.0
26/07 00:12 16.6 16.5 14.4 00:00 4.0
26/07 00:11 16.6 16.6 14.4 00:00 4.0
26/07 00:10 16.6 16.6 14.4 00:00 4.0
26/07 00:09 16.6 16.6 14.4 00:00 4.0
26/07 00:08 16.6 16.6 14.4 00:00 4.0
26/07 00:07 16.6 16.6 14.4 00:00 4.0
26/07 00:06 16.6 16.6 14.4 00:00 4.0
26/07 00:05 16.6 16.6 14.4 00:00 4.0
26/07 00:04 16.7 16.7 14.5 00:00 4.0
26/07 00:03 16.7 16.7 14.5 00:00 4.0
26/07 00:02 16.7 16.7 14.5 00:00 4.0
26/07 00:01 16.7 16.7 14.3 00:00 4.0
26/07 00:00 16.7 16.7 14.3 06:16 4.0
25/07 23:59 16.7 16.7 14.3 06:16 4.0
25/07 23:58 16.7 16.6 14.3 06:16 4.0
25/07 23:57 16.7 16.6 14.3 06:16 4.0
25/07 23:56 16.7 16.6 14.3 06:16 4.0
25/07 23:55 16.7 16.6 14.3 06:16 0.0
25/07 23:54 16.7 16.6 14.3 06:16 4.0
25/07 23:53 16.7 16.6 14.3 06:16 4.0
25/07 23:52 16.8 16.8 14.4 06:16 4.0
25/07 23:51 16.8 16.8 14.4 06:16 4.0
25/07 23:50 16.8 16.8 14.4 06:16 4.0
25/07 23:49 16.8 16.8 14.4 06:16 4.0
25/07 23:48 16.8 16.8 14.4 06:16 4.0
25/07 23:47 16.8 16.8 14.4 06:16 4.0
25/07 23:46 16.8 16.7 14.4 06:16 4.0
25/07 23:45 16.8 16.7 14.2 06:16 4.0
25/07 23:44 16.8 16.7 14.2 06:16 4.0
25/07 23:43 16.8 16.7 14.2 06:16 4.0
25/07 23:42 16.8 16.7 14.2 06:16 0.0
25/07 23:41 16.8 16.6 14.2 06:16 0.0
25/07 23:40 16.8 16.6 14.2 06:16 0.0
25/07 23:39 16.8 16.6 14.2 06:16 4.0
25/07 23:38 16.8 16.6 14.2 06:16 4.0
25/07 23:37 16.8 16.6 14.2 06:16 4.0
25/07 23:36 16.8 16.6 14.2 06:16 4.0
25/07 23:35 16.8 16.6 14.2 06:16 4.0
25/07 23:34 16.8 16.6 14.2 06:16 4.0
25/07 23:33 16.8 16.6 14.2 06:16 4.0
25/07 23:32 16.9 16.8 14.3 06:16 4.0
25/07 23:31 16.9 16.8 14.3 06:16 4.0
25/07 23:30 16.9 16.8 14.3 06:16 4.0
25/07 23:29 16.9 16.8 14.3 06:16 4.0
25/07 23:28 16.9 16.8 14.3 06:16 4.0
25/07 23:27 16.9 16.9 14.3 06:16 4.0
25/07 23:26 16.9 16.9 14.3 06:16 4.0
25/07 23:25 16.9 16.9 14.3 06:16 4.0
25/07 23:24 16.9 16.9 14.3 06:16 4.0
25/07 23:23 16.8 16.8 14.2 06:16 0.0
25/07 23:22 16.8 16.7 14.2 06:16 4.0
25/07 23:21 16.8 16.7 14.4 06:16 4.0
25/07 23:20 16.8 16.7 14.4 06:16 4.0
25/07 23:19 16.8 16.7 14.4 06:16 4.0
25/07 23:18 16.7 16.6 14.3 06:16 4.0
25/07 23:17 16.7 16.6 14.3 06:16 4.0
25/07 23:16 16.7 16.6 14.3 06:16 4.0
25/07 23:15 16.7 16.6 14.1 06:16 4.0
25/07 23:14 16.7 16.6 14.1 06:16 4.0
25/07 23:13 16.7 16.6 14.1 06:16 4.0
25/07 23:12 16.7 16.6 14.1 06:16 4.0
25/07 23:11 16.8 16.8 14.2 06:16 4.0
25/07 23:10 16.8 16.8 14.2 06:16 0.0
25/07 23:09 16.8 16.8 14.2 06:16 4.0
25/07 23:08 16.8 16.8 14.2 06:16 0.0
25/07 23:07 16.8 16.8 14.2 06:16 4.0
25/07 23:06 16.8 16.8 14.2 06:16 4.0
25/07 23:05 16.8 16.8 14.2 06:16 4.0
25/07 23:04 16.8 16.8 14.2 06:16 4.0
25/07 23:03 16.8 16.8 14.2 06:16 0.0
25/07 23:02 16.8 16.8 14.2 06:16 4.0
25/07 23:01 16.8 16.7 14.2 06:16 4.0
25/07 23:00 16.8 16.8 14.2 06:16 4.0
25/07 22:59 16.8 16.8 14.2 06:16 4.0
25/07 22:58 16.9 16.9 14.3 06:16 4.0
25/07 22:57 16.9 16.9 14.2 06:16 4.0
25/07 22:56 16.9 16.9 14.2 06:16 4.0
25/07 22:55 16.9 16.9 14.2 06:16 4.0
25/07 22:54 16.9 16.9 14.2 06:16 4.0
25/07 22:53 16.9 16.9 14.2 06:16 4.0
25/07 22:52 17.0 17 14.3 06:16 4.0
25/07 22:51 17.0 17 14.3 06:16 4.0
25/07 22:50 17.0 17 14.3 06:16 4.0
25/07 22:49 17.0 17 14.3 06:16 4.0
25/07 22:48 17.0 17.1 14.1 06:16 0.0
25/07 22:47 17.0 17.1 14.1 06:16 0.0
25/07 22:46 17.1 17.2 14.2 06:16 4.0
25/07 22:45 17.1 17.2 14.2 06:16 4.0
25/07 22:44 17.1 17.3 14 06:16 4.0
25/07 22:43 17.2 17.4 14.1 06:16 4.0
25/07 22:42 17.2 17.5 14.1 06:16 4.0
25/07 22:41 17.3 17.6 14.2 06:16 4.0
25/07 22:40 17.3 17.6 14 06:16 4.0
25/07 22:39 17.4 17.8 14.1 06:16 4.0
25/07 22:38 17.4 17.8 14.1 06:16 4.0
25/07 22:37 17.4 17.8 14.1 06:16 4.0
25/07 22:36 17.4 17.8 14.1 06:16 0.0
25/07 22:35 17.4 17.8 14.1 06:16 4.0
25/07 22:34 17.3 17.7 14 06:16 4.0
25/07 22:33 17.3 17.7 14.2 06:16 4.0
25/07 22:32 17.3 17.7 14.2 06:16 4.0
25/07 22:31 17.2 17.6 14.1 06:16 4.0
25/07 22:30 17.2 17.6 14.1 06:16 4.0
25/07 22:29 17.2 17.6 14.1 06:16 4.0
25/07 22:28 17.1 17.5 14 06:16 4.0
25/07 22:27 17.1 17.5 14.2 06:16 4.0
25/07 22:26 17.0 17.4 14.1 06:16 4.0
25/07 22:25 17.0 17.3 14.3 06:16 4.0
25/07 22:24 16.9 17.2 14.2 06:16 4.0
25/07 22:23 16.8 17.1 14.1 06:16 4.0
25/07 22:22 16.8 17 14.1 06:16 4.0
25/07 22:21 16.7 16.9 14 06:16 4.0
25/07 22:20 16.7 16.8 14 06:16 0.0
25/07 22:19 16.7 16.8 14.1 06:16 4.0
25/07 22:18 16.7 16.8 14.1 06:16 4.0
25/07 22:17 16.7 16.8 14.1 06:16 4.0
25/07 22:16 16.7 16.7 14.1 06:16 0.0
25/07 22:15 16.7 16.7 14.1 06:16 0.0
25/07 22:14 16.6 16.5 14 06:16 4.0
25/07 22:13 16.6 16.5 14 06:16 4.0
25/07 22:12 16.6 16.5 14 06:16 4.0
25/07 22:11 16.6 16.5 14 06:16 4.0
25/07 22:10 16.7 16.6 14.1 06:16 4.0
25/07 22:09 16.7 16.6 14.1 06:16 4.0
25/07 22:08 16.7 16.7 14.1 06:16 4.0
25/07 22:07 16.7 16.7 14.1 06:16 0.0
25/07 22:06 16.7 16.7 14.1 06:16 4.0
25/07 22:05 16.7 16.7 14.1 06:16 4.0
25/07 22:04 16.7 16.7 14.1 06:16 4.0
25/07 22:03 16.7 16.7 14.1 06:16 4.0
25/07 22:02 16.7 16.7 14.1 06:16 0.0
25/07 22:01 16.7 16.7 14.1 06:16 4.0
25/07 22:00 16.6 16.6 14 06:16 4.0
25/07 21:59 16.6 16.6 14 06:16 4.0
25/07 21:58 16.6 16.6 14 06:16 4.0
25/07 21:57 16.6 16.5 14 06:16 0.0
25/07 21:56 16.6 16.5 14 06:16 4.0
25/07 21:55 16.5 16.4 13.9 06:16 0.0
25/07 21:54 16.5 16.4 13.9 06:16 0.0
25/07 21:53 16.5 16.4 13.9 06:16 4.0
25/07 21:52 16.5 16.4 14.1 06:16 4.0
25/07 21:51 16.4 16.3 14 06:16 4.0
25/07 21:50 16.4 16.3 14 06:16 4.0
25/07 21:49 16.4 16.3 14 06:16 4.0
25/07 21:48 16.4 16.3 14 06:16 4.0
25/07 21:47 16.4 16.3 14 06:16 0.0
25/07 21:46 16.4 16.3 14 06:16 4.0
25/07 21:45 16.4 16.3 14 06:16 4.0
25/07 21:44 16.4 16.3 14 06:16 0.0
25/07 21:43 16.4 16.3 14 06:16 0.0
25/07 21:42 16.4 16.3 14 06:16 4.0
25/07 21:41 16.4 16.3 14 06:16 4.0
25/07 21:40 16.4 16.3 14 06:16 0.0
25/07 21:39 16.4 16.3 14 06:16 4.0
25/07 21:38 16.4 16.3 14 06:16 4.0
25/07 21:37 16.3 16.2 13.9 06:16 4.0
25/07 21:36 16.3 16.2 13.9 06:16 4.0
25/07 21:35 16.3 16.2 13.9 06:16 0.0
25/07 21:33 16.4 16.4 14 06:16 0.0
25/07 21:32 16.4 16.4 14 06:16 4.0
25/07 21:31 16.4 16.4 14 06:16 4.0
25/07 21:30 16.4 16.4 14 06:16 4.0
25/07 21:29 16.4 16.4 14 06:16 4.0
25/07 21:28 16.4 16.4 14 06:16 4.0
25/07 21:27 16.4 16.5 14 06:16 4.0
25/07 21:26 16.4 16.5 14 06:16 4.0
25/07 21:25 16.4 16.5 14 06:16 0.0
25/07 21:24 16.4 16.5 14 06:16 4.0
25/07 21:23 16.4 16.5 14 06:16 4.0
25/07 21:22 16.4 16.5 14 06:16 4.0
25/07 21:21 16.4 16.5 14 06:16 4.0
25/07 21:20 16.3 16.4 13.9 06:16 4.0
25/07 21:19 16.3 16.4 13.9 06:16 4.0
25/07 21:18 16.3 16.4 13.9 06:16 4.0
25/07 21:17 16.3 16.4 13.9 06:16 4.0
25/07 21:16 16.3 16.4 13.9 06:16 4.0
25/07 21:15 16.3 16.3 14.1 06:16 4.0
25/07 21:14 16.2 16.2 14 06:16 4.0
25/07 21:13 16.2 16.2 14 06:16 4.0
25/07 21:12 16.2 16.2 14 06:16 0.0
25/07 21:11 16.2 16.2 14 06:16 4.0
25/07 21:10 16.2 16.1 14 06:16 0.0
25/07 21:09 16.2 16.1 14 06:16 4.0
25/07 21:08 16.1 16 13.9 06:16 4.0
25/07 21:07 16.1 15.9 13.9 06:16 4.0
25/07 21:06 16.1 15.9 13.9 06:16 4.0
25/07 21:05 16.0 15.8 14 06:16 0.0
25/07 21:04 16.0 15.8 14 06:16 4.0
25/07 21:03 16.0 15.8 14 06:16 4.0
25/07 21:02 16.0 15.8 14 06:16 0.0
25/07 21:01 15.9 15.6 13.9 06:16 4.0
25/07 21:00 15.9 15.6 13.9 06:16 4.0
25/07 20:59 15.9 15.7 13.9 06:16 4.0
25/07 20:58 15.9 15.7 13.9 06:16 4.0
25/07 20:57 15.8 15.5 13.8 06:16 4.0
25/07 20:56 15.8 15.5 13.8 06:16 4.0
25/07 20:55 15.8 15.5 13.8 06:16 4.0
25/07 20:54 15.8 15.5 13.8 06:16 4.0
25/07 20:53 15.8 15.5 13.8 06:16 0.0
25/07 20:52 15.8 15.4 13.8 06:16 0.0
25/07 20:51 15.8 15.4 13.8 06:16 0.0
25/07 20:50 15.7 15.3 13.7 06:16 0.0
25/07 20:49 15.7 15.3 13.7 06:16 0.0
25/07 20:48 15.7 15.3 13.7 06:16 0.0
25/07 20:47 15.7 15.2 13.7 06:16 0.0
25/07 20:46 15.7 15.2 13.7 06:16 0.0
25/07 20:45 15.7 15.2 13.7 06:16 0.0
25/07 20:44 15.7 15.2 13.7 06:16 0.0
25/07 20:43 15.6 15.1 13.6 06:16 0.0
25/07 20:42 15.6 15.1 13.6 06:16 0.0
25/07 20:41 15.6 15.1 13.6 06:16 0.0
25/07 20:40 15.6 15.1 13.6 06:16 0.0
25/07 20:39 15.6 15.1 13.8 06:16 0.0
25/07 20:38 15.6 15.1 13.8 06:16 0.0
25/07 20:37 15.6 15.1 13.8 06:16 0.0
25/07 20:36 15.6 15.1 13.8 06:16 0.0
25/07 20:35 15.5 15 13.7 06:16 0.0
25/07 20:34 15.5 14.9 13.7 06:16 0.0
25/07 20:33 15.5 14.9 13.7 06:16 0.0
25/07 20:32 15.5 15 13.7 06:16 0.0
25/07 20:31 15.5 15 13.7 06:16 0.0
25/07 20:30 15.5 15 13.7 06:16 0.0
25/07 20:29 15.5 15 13.7 06:16 0.0
25/07 20:28 15.4 14.8 13.6 06:16 0.0
25/07 20:27 15.4 14.8 13.6 06:16 0.0
25/07 20:26 15.4 14.8 13.6 06:16 0.0
25/07 20:25 15.4 14.8 13.6 06:16 0.0
25/07 20:24 15.4 14.8 13.6 06:16 0.0
25/07 20:23 15.4 14.8 13.6 06:16 0.0
25/07 20:22 15.4 14.8 13.6 06:16 0.0
25/07 20:21 15.4 14.8 13.6 06:16 0.0
25/07 20:20 15.4 14.8 13.6 06:16 0.0
25/07 20:19 15.4 14.8 13.6 06:16 0.0
25/07 20:18 15.4 14.8 13.6 06:16 0.0
25/07 20:17 15.3 14.6 13.5 06:16 0.0
25/07 20:16 15.3 14.6 13.5 06:16 4.0
25/07 20:15 15.3 14.6 13.5 06:16 4.0
25/07 20:14 15.3 14.6 13.3 06:16 4.0



    Load Time 0.064191 seconds